Regional Weather Roundup
Issued by NWS

Home | Current Version | Previous Version | Text Only | Print | Product List | Glossary On
Versions: 1 2 3 4 5 6 7 8 9 10 11 12 13 14 15 16 17 18 19 20 21 22 23 24 25 26 27 28 29 30 31 32 33 34 35 36 37 38 39 40 41 42 43 44 45 46 47 48 49 50
000
ASUS46 KPQR 201010
RWROR

OREGON REGIONAL WEATHER ROUNDUP
NATIONAL WEATHER SERVICE PORTLAND OR
300 AM PDT SAT SEP 20 2014

NOTE: "FAIR" INDICATES FEW OR NO CLOUDS BELOW 12,000 FEET WITH
NO SIGNIFICANT WEATHER AND/OR OBSTRUCTIONS TO VISIBILITY.

ORZ001>013-201100-
NORTHWEST OREGON


CITY           SKY/WX    TMP DP  RH WIND       PRES   REMARKS
ASTORIA        FOG       53  53 100 CALM      30.05S VSB 1/4
NEWPORT        CLEAR     54  54 100 N3        30.03F FOG
PORTLAND       CLEAR     62  59  90 NW5       30.03F
VANCOUVER WA   CLEAR     60  56  86 CALM      30.03S
SCAPPOOSE      CLEAR     62  57  83 N5        30.02F
HILLSBORO      CLEAR     59  57  93 CALM      30.03S
AURORA         CLEAR     60  57  89 N8        30.03F
MCMINNVILLE    CLEAR     62  57  83 N5        30.03F
SALEM          CLEAR     62  56  80 NW5       30.00F
CORVALLIS      CLEAR     57  54  88 NW5       30.02S
EUGENE         CLEAR     60  53  77 N8        30.00F
$$

ORZ021-028-201100-
SOUTHWEST OREGON


CITY           SKY/WX    TMP DP  RH WIND       PRES   REMARKS
NORTH BEND     CLEAR     55  55 100 CALM      29.95F
BROOKINGS      SUNNY     61  58  90 CALM      29.86S
ROSEBURG       CLEAR     62  50  64 CALM      29.98S
SEXTON SUMMIT  CLEAR     64  50  60 E5        30.07F
MEDFORD        CLEAR     63  52  67 CALM      29.97F
$$

ORZ009-041-201100-
COLUMBIA GORGE


CITY           SKY/WX    TMP DP  RH WIND       PRES   REMARKS
TROUTDALE      CLEAR     56  53  90 CALM      30.02F
THE DALLES     CLEAR     60  52  74 S6        30.03R
$$

ORZ029>031-042>050-061>064-201100-
EASTERN OREGON


CITY           SKY/WX    TMP DP  RH WIND       PRES   REMARKS
REDMOND        CLEAR     50  41  71 SE5       30.11S
BEND           SUNNY     54  43  66 CALM      30.14F
KLAMATH FALLS  CLEAR     60  47  61 N8        30.11F
LAKEVIEW       CLEAR     57  39  51 N10       30.16F
HERMISTON      CLEAR     56  45  66 S7        30.04R
PENDLETON      CLEAR     57  44  62 E9        30.07R
JOHN DAY       SUNNY     55  41  61 SE12      30.16S
MEACHAM        CLEAR     40  37  89 CALM      30.17S
LA GRANDE      CLEAR     50  34  53 CALM      30.14R
BAKER CITY     CLEAR     44  40  85 CALM      30.16S
BURNS          CLEAR     48  38  68 SW7       30.16R
ROME             N/A     50  33  52 SE3       30.13F
ONTARIO        CLEAR     64  44  48 W3        30.07S
$$


USA.gov is the U.S. government's official web portal to all federal, state and local government web resources and services.